Terminal Aerodrome Forecast
Issued by NWS Columbia, SC

Home | Current Version | Previous Version | Text Only | Print | Product List | Glossary On
Versions: 1 2 3 4 5 6 7 8 9 10 11 12 13 14 15 16 17 18 19 20 21 22 23 24 25 26 27 28 29 30 31 32 33 34 35 36 37 38 39 40 41 42 43 44 45 46 47 48 49 50
433
FTAK31 PAJN 230539
TAFAGS
TAF
PAGS 230539Z 2306/2406 VRB03KT P6SM VCSH SCT015 SCT030
      TEMPO 2306/2309 -SHRA SCT005 BKN015 OVC030
     FM230900 00000KT 4SM BR BKN007 OVC015
     FM231600 36008KT P6SM OVC050
      AMD LTD TO CLD VIS AND WIND=

USA.gov is the U.S. government's official web portal to all federal, state and local government web resources and services.